When you browse on this site, cookies collect data to enhance your experience and personalize the content and advertising you see.
Visit our Privacy Policy to learn more. By continuing to use the site, you agree to this use of cookies and data.
  • en France
  • Liste des pays
  • À 7 jours
  • Température de l'eau
  • Carte météo
  • Widgets météo
  • user-avatar
    Se connecter

    Météo par heure à Ottawa

    Ce jour, 30 Mars, Lundi

    Heure Température Précipitation Vent Pression Humidité
    00:00 +6°C° 0.3 mm 4 m/s 746 mmHg 90%
    01:00 +7°C° 0.3 mm 3 m/s 747 mmHg 92%
    02:00 +5°C° 0 mm 3 m/s 746 mmHg 92%
    03:00 +5°C° 0 mm 3 m/s 746 mmHg 93%
    04:00 +4°C° 0 mm 3 m/s 746 mmHg 93%
    05:00 +4°C° 0.2 mm 3 m/s 746 mmHg 93%
    06:00 +4°C° 0.2 mm 3 m/s 746 mmHg 93%
    07:00 +4°C° 0.2 mm 3 m/s 746 mmHg 93%
    08:00 +5°C° 0.4 mm 3 m/s 747 mmHg 92%
    09:00 +5°C° 0.4 mm 3 m/s 747 mmHg 91%
    10:00 +7°C° 0.4 mm 3 m/s 747 mmHg 90%
    11:00 +7°C° 0.1 mm 3 m/s 747 mmHg 89%
    12:00 +7°C° 0.1 mm 2 m/s 747 mmHg 88%
    13:00 +7°C° 0.1 mm 2 m/s 747 mmHg 87%
    14:00 +7°C° 0.4 mm 2 m/s 747 mmHg 90%
    15:00 +7°C° 0.4 mm 2 m/s 747 mmHg 92%
    16:00 +6°C° 0.4 mm 2 m/s 748 mmHg 95%
    17:00 +6°C° 0.2 mm 2 m/s 748 mmHg 95%
    18:00 +5°C° 0.2 mm 2 m/s 749 mmHg 96%
    19:00 +6°C° 0.2 mm 1 m/s 749 mmHg 97%
    20:00 +5°C° 0.4 mm 2 m/s 749 mmHg 97%
    21:00 +5°C° 0.4 mm 2 m/s 750 mmHg 97%
    22:00 +5°C° 0.4 mm 2 m/s 750 mmHg 98%
    23:00 +4°C° 0.2 mm 3 m/s 751 mmHg 97%

    Demain, 31 Mars, Mardi

    Heure Température Précipitation Vent Pression Humidité
    00:00 +4°C° 0.2 mm 4 m/s 751 mmHg 95%
    01:00 +3°C° 0.2 mm 5 m/s 751 mmHg 94%
    02:00 +2°C° 0.1 mm 6 m/s 752 mmHg 92%
    03:00 +1°C° 0.1 mm 6 m/s 752 mmHg 90%
    04:00 0°C° 0.1 mm 7 m/s 753 mmHg 88%
    05:00 -1°C° 0 mm 6 m/s 754 mmHg 87%
    06:00 -2°C° 0 mm 6 m/s 754 mmHg 86%
    07:00 -1°C° 0 mm 5 m/s 755 mmHg 85%
    08:00 0°C° 0 mm 5 m/s 755 mmHg 80%
    09:00 +1°C° 0 mm 5 m/s 755 mmHg 74%
    10:00 +2°C° 0 mm 5 m/s 755 mmHg 68%
    11:00 +3°C° 0 mm 5 m/s 755 mmHg 63%
    12:00 +5°C° 0 mm 5 m/s 755 mmHg 58%
    13:00 +6°C° 0 mm 5 m/s 755 mmHg 52%
    14:00 +6°C° 0 mm 4 m/s 755 mmHg 52%
    15:00 +6°C° 0 mm 4 m/s 754 mmHg 52%
    16:00 +6°C° 0 mm 4 m/s 754 mmHg 52%
    17:00 +5°C° 0 mm 4 m/s 754 mmHg 59%
    18:00 +3°C° 0 mm 3 m/s 754 mmHg 66%
    19:00 +3°C° 0 mm 2 m/s 755 mmHg 73%
    20:00 +1°C° 0 mm 3 m/s 755 mmHg 76%
    21:00 +1°C° 0 mm 3 m/s 755 mmHg 79%
    22:00 0°C° 0 mm 3 m/s 755 mmHg 82%
    23:00 +1°C° 0 mm 2 m/s 754 mmHg 84%

    Après-demain, 1 Avril, Mercredi

    Heure Température Précipitation Vent Pression Humidité
    00:00 -1°C° 0 mm 2 m/s 754 mmHg 86%
    01:00 -2°C° 0 mm 2 m/s 754 mmHg 88%
    02:00 -2°C° 0 mm 2 m/s 753 mmHg 88%
    03:00 0°C° 0 mm 1 m/s 753 mmHg 88%
    04:00 0°C° 0 mm 1 m/s 753 mmHg 88%
    05:00 -2°C° 0 mm 2 m/s 753 mmHg 85%
    06:00 -1°C° 0 mm 2 m/s 753 mmHg 82%
    07:00 -1°C° 0 mm 2 m/s 754 mmHg 79%
    08:00 0°C° 0 mm 3 m/s 753 mmHg 74%
    09:00 +1°C° 0 mm 3 m/s 753 mmHg 68%
    10:00 +3°C° 0 mm 3 m/s 752 mmHg 63%
    11:00 +3°C° 0 mm 3 m/s 752 mmHg 62%
    12:00 +4°C° 0 mm 3 m/s 752 mmHg 61%
    13:00 +4°C° 0 mm 3 m/s 752 mmHg 60%
    14:00 +4°C° 0 mm 3 m/s 752 mmHg 62%
    15:00 +4°C° 0 mm 3 m/s 752 mmHg 63%
    16:00 +4°C° 0 mm 3 m/s 751 mmHg 65%
    17:00 +4°C° 0 mm 3 m/s 752 mmHg 70%
    18:00 +3°C° 0 mm 3 m/s 752 mmHg 74%
    19:00 +2°C° 0 mm 3 m/s 752 mmHg 79%
    20:00 +1°C° 0 mm 3 m/s 752 mmHg 81%
    21:00 +1°C° 0 mm 3 m/s 752 mmHg 83%
    22:00 0°C° 0 mm 3 m/s 752 mmHg 86%
    23:00 0°C° 0 mm 3 m/s 751 mmHg 87%

    2 Avril, Jeudi

    Heure Température Précipitation Vent Pression Humidité
    00:00 0°C° 0 mm 3 m/s 751 mmHg 88%
    01:00 0°C° 0 mm 3 m/s 751 mmHg 89%
    02:00 -1°C° 0 mm 4 m/s 751 mmHg 89%
    03:00 -2°C° 0 mm 4 m/s 751 mmHg 89%
    04:00 -2°C° 0 mm 4 m/s 751 mmHg 89%
    05:00 -1°C° 0 mm 4 m/s 751 mmHg 86%
    06:00 -1°C° 0 mm 5 m/s 751 mmHg 84%
    07:00 0°C° 0 mm 5 m/s 750 mmHg 82%
    08:00 +1°C° 0.2 mm 5 m/s 750 mmHg 84%
    09:00 +1°C° 0.2 mm 5 m/s 750 mmHg 86%
    10:00 +1°C° 0.2 mm 6 m/s 750 mmHg 88%
    11:00 +3°C° 0 mm 5 m/s 750 mmHg 84%
    12:00 +5°C° 0 mm 5 m/s 750 mmHg 80%
    13:00 +6°C° 0 mm 5 m/s 750 mmHg 76%
    14:00 +6°C° 0 mm 5 m/s 750 mmHg 80%
    15:00 +5°C° 0 mm 4 m/s 751 mmHg 83%
    16:00 +5°C° 0 mm 4 m/s 751 mmHg 86%
    17:00 +5°C° 0 mm 4 m/s 751 mmHg 87%
    18:00 +5°C° 0 mm 4 m/s 752 mmHg 87%
    19:00 +5°C° 0 mm 4 m/s 752 mmHg 88%
    20:00 +5°C° 0 mm 4 m/s 753 mmHg 87%
    21:00 +5°C° 0 mm 4 m/s 753 mmHg 86%
    22:00 +5°C° 0 mm 5 m/s 753 mmHg 86%
    23:00 +5°C° 0 mm 4 m/s 754 mmHg 86%

    3 Avril, Vendredi

    Heure Température Précipitation Vent Pression Humidité
    00:00 +5°C° 0 mm 4 m/s 754 mmHg 85%
    01:00 +5°C° 0 mm 4 m/s 754 mmHg 85%
    02:00 +5°C° 0 mm 4 m/s 755 mmHg 85%
    03:00 +5°C° 0 mm 4 m/s 755 mmHg 85%
    04:00 +4°C° 0 mm 4 m/s 755 mmHg 86%
    05:00 +4°C° 0 mm 3 m/s 756 mmHg 85%
    06:00 +4°C° 0 mm 3 m/s 757 mmHg 85%
    07:00 +4°C° 0 mm 3 m/s 757 mmHg 85%
    08:00 +6°C° 0 mm 4 m/s 757 mmHg 79%
    09:00 +7°C° 0 mm 4 m/s 757 mmHg 74%
    10:00 +8°C° 0 mm 5 m/s 758 mmHg 69%
    11:00 +9°C° 0 mm 5 m/s 758 mmHg 67%
    12:00 +10°C° 0 mm 4 m/s 757 mmHg 66%
    13:00 +10°C° 0 mm 4 m/s 757 mmHg 64%
    14:00 +10°C° 0 mm 4 m/s 757 mmHg 64%
    15:00 +8°C° 0 mm 4 m/s 757 mmHg 64%
    16:00 +8°C° 0 mm 4 m/s 757 mmHg 64%
    17:00 +8°C° 0 mm 3 m/s 758 mmHg 67%
    18:00 +8°C° 0 mm 3 m/s 758 mmHg 70%
    19:00 +7°C° 0 mm 2 m/s 758 mmHg 73%
    20:00 +6°C° 0 mm 2 m/s 758 mmHg 74%
    21:00 +5°C° 0 mm 3 m/s 758 mmHg 75%
    22:00 +5°C° 0 mm 3 m/s 759 mmHg 75%
    23:00 +4°C° 0 mm 3 m/s 758 mmHg 77%

    4 Avril, Samedi

    Heure Température Précipitation Vent Pression Humidité
    00:00 +2°C° 0 mm 3 m/s 758 mmHg 79%
    01:00 +1°C° 0 mm 3 m/s 758 mmHg 81%
    02:00 0°C° 0 mm 3 m/s 758 mmHg 83%
    03:00 0°C° 0 mm 3 m/s 758 mmHg 86%
    04:00 -1°C° 0 mm 2 m/s 758 mmHg 88%
    05:00 -1°C° 0 mm 3 m/s 758 mmHg 86%
    06:00 -1°C° 0 mm 3 m/s 758 mmHg 84%
    07:00 0°C° 0 mm 3 m/s 758 mmHg 82%
    08:00 +2°C° 0 mm 3 m/s 758 mmHg 76%
    09:00 +3°C° 0 mm 4 m/s 758 mmHg 70%
    10:00 +5°C° 0 mm 4 m/s 757 mmHg 65%
    11:00 +6°C° 0 mm 4 m/s 757 mmHg 62%
    12:00 +7°C° 0 mm 4 m/s 756 mmHg 60%
    13:00 +8°C° 0 mm 4 m/s 756 mmHg 57%
    14:00 +10°C° 0 mm 3 m/s 755 mmHg 56%
    15:00 +10°C° 0 mm 3 m/s 755 mmHg 55%
    16:00 +10°C° 0 mm 2 m/s 754 mmHg 55%
    17:00 +9°C° 0 mm 2 m/s 755 mmHg 61%
    18:00 +8°C° 0 mm 2 m/s 755 mmHg 68%
    19:00 +6°C° 0 mm 2 m/s 755 mmHg 74%
    20:00 +6°C° 0 mm 2 m/s 755 mmHg 75%
    21:00 +5°C° 0 mm 2 m/s 755 mmHg 76%
    22:00 +4°C° 0 mm 2 m/s 755 mmHg 77%
    23:00 +4°C° 0 mm 2 m/s 755 mmHg 79%
    Voir plus